Stanley, ND

2:55 AM CDT on May 28, 2017 (GMT -0500)
Stanley

Weather History for K08D - January, 2013

Change the Weather History Date:

Wednesday, January 16, 2013

  Actual Average (KMIB) Record (KMIB)
Temperature  
Mean Temperature 24 °F -  
Max Temperature 35 °F 15 °F 37 °F (2015)
Min Temperature 12 °F 0 °F -20 °F (1997)
Degree Days  
Heating Degree Days 42    
Moisture  
Dew Point 23 °F    
Average Humidity 90    
Maximum Humidity 100    
Minimum Humidity 80    
Precipitation  
Precipitation 0.02 in - - ()
Sea Level Pressure  
Sea Level Pressure 29.90 in    
Wind  
Wind Speed 13 mph (NW)    
Max Wind Speed 18 mph    
Max Gust Speed 24 mph    
Visibility 10 miles    
Events Rain , Snow    
Averages and records for this station are not official NWS values.
T = Trace of Precipitation, MM = Missing Value Source: NWS Daily Summary

Daily Weather History Graph

Daily Weather History Graph

Search for Another Location

Airport or City:

Trip Planner

Search our weather history database for the weather conditions in past years. The results will help you decide how hot, cold, wet, or windy it might be!

Date:

Astronomy

Jan. 16, 2013 Rise Set
Actual Time 8:34 AM CST 5:24 PM CST
Civil Twilight 7:59 AM CST 6:00 PM CST
Nautical Twilight 7:20 AM CST 6:38 PM CST
Astronomical Twilight 6:43 AM CST 7:16 PM CST
Moon 10:42 AM CST (1/16) 11:51 PM CST (1/16)
Length of Visible Light 10h 00m
Length of Day
8h 50m
Waxing Crescent, 28% of the Moon is Illuminated
Jan 16
Waxing Crescent
Jan 18
First Quarter
Jan 26
Full
Feb 3
Last Quarter
Feb 10
New

Hourly Weather History & Observations

Time (CST) Temp. Windchill Dew Point Humidity Pressure Visibility Wind Dir Wind Speed Gust Speed Precip Events Conditions
12:15 AM 35.6 °F 25.2 °F 32.0 °F 87% 29.66 in 10.0 mi WNW 18.4 mph 24.2 mph N/A   Overcast
12:35 AM 35.6 °F 26.2 °F 32.0 °F 87% 29.66 in 10.0 mi WNW 15.0 mph 24.2 mph N/A   Overcast
12:55 AM 35.6 °F 25.2 °F 32.0 °F 87% 29.67 in 10.0 mi WNW 18.4 mph - N/A   Overcast
1:15 AM 35.6 °F 25.9 °F 32.0 °F 87% 29.67 in 10.0 mi West 16.1 mph 23.0 mph N/A   Overcast
1:35 AM 35.6 °F 26.6 °F 32.0 °F 87% 29.67 in 10.0 mi WNW 13.8 mph 19.6 mph N/A Rain Light Rain
1:55 AM 35.6 °F 26.2 °F 32.0 °F 87% 29.67 in 10.0 mi West 15.0 mph - N/A   Mostly Cloudy
2:15 AM 35.6 °F 25.9 °F 32.0 °F 87% 29.68 in 10.0 mi West 16.1 mph 20.7 mph N/A Rain Light Rain
2:35 AM 35.6 °F 26.6 °F 33.8 °F 93% 29.68 in 10.0 mi West 13.8 mph 21.9 mph N/A Rain Light Rain
2:55 AM 35.6 °F 27.1 °F 32.0 °F 87% 29.68 in 10.0 mi West 12.7 mph 19.6 mph N/A   Mostly Cloudy
3:15 AM 35.6 °F 25.9 °F 33.8 °F 93% 29.68 in 10.0 mi WNW 16.1 mph 20.7 mph N/A Rain Light Rain
3:35 AM 35.6 °F 26.2 °F 33.8 °F 93% 29.68 in 10.0 mi WNW 15.0 mph - N/A Rain Light Rain
3:55 AM 35.6 °F 26.2 °F 33.8 °F 93% 29.68 in 10.0 mi West 15.0 mph 19.6 mph N/A Rain Light Rain
4:15 AM 35.6 °F 26.2 °F 33.8 °F 93% 29.68 in 10.0 mi West 15.0 mph 18.4 mph N/A Rain Light Rain
4:35 AM 35.6 °F 27.1 °F 32.0 °F 87% 29.67 in 10.0 mi West 12.7 mph - N/A   Mostly Cloudy
4:55 AM 33.8 °F 24.8 °F 32.0 °F 93% 29.67 in 10.0 mi West 12.7 mph 18.4 mph N/A   Overcast
5:15 AM 33.8 °F 23.9 °F 32.0 °F 93% 29.67 in 10.0 mi West 15.0 mph - N/A   Overcast
5:35 AM 33.8 °F 24.8 °F 32.0 °F 93% 29.67 in 10.0 mi West 12.7 mph 17.3 mph N/A   Overcast
6:35 AM 35.6 °F 25.2 °F 32.0 °F 87% 29.68 in 10.0 mi WNW 18.4 mph 24.2 mph N/A   Overcast
6:55 AM 35.6 °F 25.5 °F 32.0 °F 87% 29.69 in 10.0 mi NW 17.3 mph 21.9 mph N/A   Overcast
7:15 AM 35.6 °F 25.9 °F 32.0 °F 87% 29.70 in 10.0 mi NW 16.1 mph - N/A   Overcast
7:35 AM 33.8 °F 24.3 °F 32.0 °F 93% 29.71 in 10.0 mi NW 13.8 mph - N/A   Overcast
7:55 AM 33.8 °F 23.9 °F 32.0 °F 93% 29.72 in 10.0 mi NNW 15.0 mph 19.6 mph N/A   Overcast
8:15 AM 32.0 °F 21.6 °F 32.0 °F 100% 29.74 in 10.0 mi NNW 15.0 mph 20.7 mph N/A   Overcast
8:35 AM 28.4 °F 18.5 °F 28.4 °F 100% 29.78 in 10.0 mi NE 11.5 mph 18.4 mph N/A Rain Light Freezing Rain
8:55 AM 26.6 °F 17.5 °F 26.6 °F 100% 29.80 in 10.0 mi ENE 9.2 mph - N/A Rain Light Freezing Rain
9:15 AM 24.8 °F 16.1 °F 24.8 °F 100% 29.82 in 5.0 mi NE 8.1 mph 16.1 mph N/A Snow Light Snow
9:35 AM 24.8 °F 15.3 °F 24.8 °F 100% 29.84 in 10.0 mi NE 9.2 mph - 0.01 in Rain Light Freezing Rain
9:55 AM 24.8 °F 14.0 °F 23.0 °F 93% 29.88 in 10.0 mi NE 11.5 mph 17.3 mph 0.01 in   Overcast
10:15 AM 23.0 °F 12.4 °F 23.0 °F 100% 29.89 in 10.0 mi NE 10.4 mph - N/A   Overcast
10:35 AM 23.0 °F 13.9 °F 21.2 °F 93% 29.91 in 10.0 mi NNE 8.1 mph - N/A   Overcast
10:55 AM 23.0 °F 14.7 °F 21.2 °F 93% 29.92 in 10.0 mi NE 6.9 mph - N/A   Mostly Cloudy
11:15 AM 23.0 °F 18.4 °F 21.2 °F 93% 29.93 in 10.0 mi NE 3.5 mph - N/A Snow Light Snow
11:35 AM 23.0 °F 14.7 °F 23.0 °F 100% 29.93 in 10.0 mi NNE 6.9 mph - 0.01 in Snow Light Snow
11:55 AM 23.0 °F 18.4 °F 19.4 °F 86% 29.94 in 10.0 mi NE 3.5 mph - 0.01 in   Overcast
12:15 PM 23.0 °F 13.1 °F 19.4 °F 86% 29.95 in 10.0 mi NNE 9.2 mph - N/A   Scattered Clouds
12:35 PM 23.0 °F 13.1 °F 19.4 °F 86% 29.97 in 10.0 mi North 9.2 mph - N/A   Mostly Cloudy
12:55 PM 23.0 °F 13.1 °F 21.2 °F 93% 29.97 in 10.0 mi NNE 9.2 mph - N/A   Overcast
1:15 PM 23.0 °F 12.4 °F 21.2 °F 93% 29.98 in 10.0 mi NNE 10.4 mph - N/A   Overcast
1:35 PM 23.0 °F 13.9 °F 19.4 °F 86% 29.98 in 10.0 mi NNE 8.1 mph - N/A   Overcast
2:15 PM 23.0 °F 13.1 °F 19.4 °F 86% 30.00 in 10.0 mi NNW 9.2 mph - N/A   Overcast
2:35 PM 21.2 °F 10.9 °F 19.4 °F 93% 30.01 in 10.0 mi North 9.2 mph - N/A   Overcast
2:55 PM 21.2 °F 13.6 °F 17.6 °F 86% 30.01 in 10.0 mi NNE 5.8 mph - N/A   Overcast
3:15 PM 21.2 °F 12.6 °F 17.6 °F 86% 30.03 in 10.0 mi NNW 6.9 mph - N/A   Overcast
3:35 PM 21.2 °F 14.9 °F 17.6 °F 86% 30.03 in 10.0 mi West 4.6 mph - N/A   Overcast
3:55 PM 23.0 °F 13.9 °F 17.6 °F 80% 30.05 in 10.0 mi NW 8.1 mph - N/A   Overcast
4:15 PM 21.2 °F 9.5 °F 17.6 °F 86% 30.07 in 10.0 mi NW 11.5 mph - N/A   Overcast
4:35 PM 19.4 °F 9.5 °F 17.6 °F 93% 30.07 in 10.0 mi North 8.1 mph - N/A   Overcast
4:55 PM 19.4 °F 8.6 °F 15.8 °F 86% 30.08 in 10.0 mi NNW 9.2 mph - N/A   Overcast
5:15 PM 17.6 °F 10.7 °F 14.0 °F 86% 30.07 in 10.0 mi NNW 4.6 mph - N/A   Overcast
5:35 PM 15.8 °F 7.2 °F 12.2 °F 86% 30.08 in 10.0 mi West 5.8 mph - N/A   Scattered Clouds
5:55 PM 14.0 °F 5.1 °F 10.4 °F 86% 30.10 in 10.0 mi West 5.8 mph - N/A   Clear
6:15 PM 12.2 °F 4.3 °F 10.4 °F 92% 30.08 in 10.0 mi WSW 4.6 mph - N/A   Mostly Cloudy
6:35 PM 12.2 °F 6.1 °F 8.6 °F 85% 30.09 in 10.0 mi WNW 3.5 mph - N/A   Mostly Cloudy
6:55 PM 14.0 °F 3.9 °F 10.4 °F 86% 30.09 in 10.0 mi West 6.9 mph - N/A   Overcast
7:15 PM 14.0 °F 2.9 °F 10.4 °F 86% 30.09 in 10.0 mi West 8.1 mph - N/A   Overcast
7:35 PM 15.8 °F 5.1 °F 14.0 °F 93% 30.08 in 10.0 mi WSW 8.1 mph - N/A   Overcast
7:55 PM 17.6 °F 5.0 °F 15.8 °F 93% 30.08 in 10.0 mi WSW 11.5 mph - N/A   Overcast
8:15 PM 19.4 °F 7.9 °F 15.8 °F 86% 30.07 in 10.0 mi WSW 10.4 mph - N/A   Overcast
8:35 PM 17.6 °F 7.3 °F 15.8 °F 93% 30.07 in 10.0 mi West 8.1 mph - N/A   Partly Cloudy
8:55 PM 19.4 °F 8.6 °F 15.8 °F 86% 30.09 in 10.0 mi WNW 9.2 mph - N/A   Mostly Cloudy
9:15 PM 21.2 °F 10.9 °F 19.4 °F 93% 30.09 in 10.0 mi WNW 9.2 mph - N/A   Overcast
9:35 PM 23.0 °F 12.4 °F 19.4 °F 86% 30.10 in 10.0 mi West 10.4 mph - N/A   Overcast
9:55 PM 23.0 °F 10.6 °F 19.4 °F 86% 30.10 in 10.0 mi West 13.8 mph - N/A   Overcast
10:15 PM 23.0 °F 12.4 °F 19.4 °F 86% 30.10 in 10.0 mi West 10.4 mph - N/A   Overcast
10:35 PM 24.8 °F 14.6 °F 23.0 °F 93% 30.10 in 10.0 mi West 10.4 mph - N/A   Overcast
10:55 PM 24.8 °F 14.6 °F 23.0 °F 93% 30.10 in 10.0 mi WNW 10.4 mph - N/A   Overcast
11:15 PM 24.8 °F 15.3 °F 23.0 °F 93% 30.11 in 10.0 mi West 9.2 mph - N/A   Overcast
11:35 PM 26.6 °F 15.7 °F 24.8 °F 93% 30.11 in 10.0 mi WNW 12.7 mph - N/A   Overcast
11:55 PM 26.6 °F 16.2 °F 24.8 °F 93% 30.11 in 10.0 mi WNW 11.5 mph - N/A   Overcast